Regional Weather Roundup
Issued by NWS Kansas City/Pleasant Hill, MO

Home | Current Version | Previous Version | Text Only | Print | Product List | Glossary On
Versions: 1 2 3 4 5 6 7 8 9 10 11 12 13 14 15 16 17 18 19 20 21 22 23 24 25 26 27 28 29 30 31 32 33 34 35 36 37 38 39 40 41 42 43 44 45 46 47 48 49 50
000
ASUS43 KEAX 312111
RWREAX

WEATHER ROUNDUP FOR EASTERN KANSAS AND NORTHWEST MISSOURI
NATIONAL WEATHER SERVICE KANSAS CITY/PLEASANT HILL MO
400 PM CDT THU JUL 31 2014

KSZ040-057-103>105-MOZ028-029-037-043-312200-
...KANSAS CITY METROPOLITAN AREA...

CITY           SKY/WX    TMP DP  RH WIND       PRES   REMARKS
K.C. INTL      PTSUNNY   82  55  39 W6        30.08F
K.C. DOWNTOWN  SUNNY     84  53  34 CALM      30.06F
LEES SUMMIT    MOSUNNY   83  54  36 E7        30.08F
OLATHE - IXD   CLOUDY    85  55  35 NE7       30.07F
OLATHE - OJC   MOSUNNY   82  55  39 E6        30.07F
LAWRENCE       SUNNY     86  56  35 CALM      30.07F

$$

MOZ001>008-011>017-020>025-030>033-038>040-044>046-053-054-312200-
...NORTHERN AND CENTRAL MISSOURI...

CITY           SKY/WX    TMP DP  RH WIND       PRES   REMARKS
ST. JOSEPH     SUNNY     82  57  42 SW5       30.07F
MOSBY          PTCLDY    81  54  39 SW3       30.07S
WARRENSBURG    MOSUNNY   81  54  39 W3        30.07F
WHITEMAN AFB   MOSUNNY   82  44  25 VRB1      30.07F
CLINTON        MOSUNNY   82  61  47 NE7       30.06F
SEDALIA        MOSUNNY   84  56  38 E5        30.07F
WARSAW         NOT AVBL
MARSHALL       CLOUDY    86  59  39 SE3       30.08F HAZE
CHILLICOTHE      N/A     84  56  38 VRB6      30.08F
MOBERLY        SUNNY     84  52  32 CALM      30.08F
KIRKSVILLE     MOSUNNY   83  55  38 CALM      30.09S

$$

MOZ041-047>049-056>058-063>065-088>090-097-312200-
...EASTERN AND SOUTHERN MISSOURI...

CITY           SKY/WX    TMP DP  RH WIND       PRES   REMARKS
ST. LOUIS INTL MOSUNNY   85  59  41 VRB6      30.06F
SPIRIT OF STL  PTSUNNY   87  52  29 VRB3      30.04F
COLUMBIA       MOSUNNY   85  54  34 NW8       30.06F
JEFFERSON CITY MOSUNNY   84  52  33 CALM      30.04F
HANNIBAL       SUNNY     84  55  37 NE3       30.08S
ROLLA          MOSUNNY   82  52  35 CALM      30.05F
LEBANON        MOSUNNY   84  54  34 CALM      30.08S
OSAGE BEACH      N/A     84  54  34 CALM      30.05F
SPRINGFIELD    PTSUNNY   79  61  53 SE7       30.07F
BRANSON        CLOUDY    73  66  78 SE7       30.10F
NEVADA         SUNNY     84  59  42 S3        30.07F
JOPLIN         PTSUNNY   80  63  55 NE6       30.06F
WEST PLAINS    CLOUDY    76  64  66 S8        30.10F
MALDEN         MOSUNNY   77  64  65 W5        30.09F

$$

IAZ060-094-KSZ022-034>040-054-083-096-NEZ052-066-093-312200-
...KANSAS...SOUTHEAST NEBRASKA AND IOWA...

CITY           SKY/WX    TMP DP  RH WIND       PRES   REMARKS
TOPEKA         SUNNY     86  53  32 NE6       30.06F
MANHATTAN      SUNNY     84  49  29 VRB3      30.06F
EMPORIA        MOSUNNY   82  51  34 E8        30.07F
CHANUTE        MOSUNNY   82  59  45 NE3       30.07F
WICHITA        MOSUNNY   83  56  39 VRB5      30.08F
OMAHA          MOSUNNY   84  55  36 SE9       30.04F
LINCOLN        SUNNY     86  56  35 SE10G17   30.04F
FALLS CITY     SUNNY     86  53  32 VRB5      30.05F
LAMONI         PTSUNNY   78  54  43 SW6       30.08F
DES MOINES     MOSUNNY   83  56  39 W8        30.05F

$$




USA.gov is the U.S. government's official web portal to all federal, state and local government web resources and services.